EA1QW Weather Reports


Display with metric or nautical units.
time (UTC)temp
F
wind
direction
speed
MPH
gust
MPH
rain 1hr
in
rain 24hr
in
rain mn
in
humidity
%
barometer
mb
20210415234523 47 95 3.0 6.0 0.00 0.00 0.00 63 1022.8
20210415234045 47 88 2.0 6.0 0.00 0.00 0.00 63 1022.8
20210415233532 47 82 1.0 5.0 0.00 0.00 0.00 63 1022.8
20210415233059 47 81 2.0 6.0 0.00 0.00 0.00 63 1022.8
20210415232853 47 85 2.0 6.0 0.00 0.00 0.00 63 1022.8
20210415232359 47 89 2.0 8.0 0.00 0.00 0.00 63 1022.8
20210415231522 47 92 3.0 8.0 0.00 0.00 0.00 63 1022.8
20210415231052 47 81 3.0 5.0 0.00 0.00 0.00 63 1022.8
20210415230534 47 91 1.0 6.0 0.00 0.00 0.00 63 1022.8
20210415230045 47 92 3.0 6.0 0.00 0.00 0.00 63 1022.8
20210415225920 47 86 4.0 6.0 0.00 0.00 0.00 63 1022.9
20210415225336 47 92 3.0 6.0 0.00 0.00 0.00 63 1022.9
20210415224527 47 96 2.0 7.0 0.00 0.00 0.00 63 1022.9
20210415224028 47 94 2.0 7.0 0.00 0.00 0.00 63 1022.9
20210415223526 47 75 2.0 6.0 0.00 0.00 0.00 63 1022.9
20210415223108 47 110 1.0 5.0 0.00 0.00 0.00 63 1022.9
20210415222927 47 112 4.0 5.0 0.00 0.00 0.00 63 1022.9
20210415222637 47 90 2.0 5.0 0.00 0.00 0.00 63 1022.9
20210415221522 47 93 2.0 6.0 0.00 0.00 0.00 63 1022.9
20210415221034 47 94 2.0 6.0 0.00 0.00 0.00 63 1022.9
20210415220530 47 92 1.0 3.0 0.00 0.00 0.00 63 1022.9
20210415220215 48 92 1.0 3.0 0.00 0.00 0.00 62 1022.9
20210415220030 48 98 0.0 3.0 0.00 0.00 0.00 62 1022.9
20210415215440 48 98 0.0 7.0 0.00 0.00 0.00 62 1022.9
20210415214520 48 98 2.0 7.0 0.00 0.00 0.00 61 1022.9
20210415214041 48 92 1.0 3.0 0.00 0.00 0.00 61 1022.8
20210415213529 48 92 1.0 3.0 0.00 0.00 0.00 60 1022.8
20210415213043 48 92 1.0 5.0 0.00 0.00 0.00 60 1022.8
20210415212728 48 91 1.0 5.0 0.00 0.00 0.00 60 1022.8
20210415212131 49 88 1.0 7.0 0.00 0.00 0.00 60 1022.8
20210415211526 49 88 3.0 9.0 0.00 0.00 0.00 59 1022.8
20210415211024 49 78 5.0 9.0 0.00 0.00 0.00 59 1022.8
20210415210537 49 95 1.0 7.0 0.00 0.00 0.00 58 1022.8
20210415210032 49 80 3.0 8.0 0.00 0.00 0.00 58 1022.8
20210415205916 49 78 3.0 10.0 0.00 0.00 0.00 58 1022.8
20210415205449 49 75 4.0 10.0 0.00 0.00 0.00 58 1022.8
20210415204522 49 86 4.0 9.0 0.00 0.00 0.00 57 1022.8
20210415204036 49 93 4.0 9.0 0.00 0.00 0.00 57 1022.8
20210415204023 49 94 3.0 9.0 0.00 0.00 0.00 57 1022.4
20210415203542 49 87 4.0 10.0 0.00 0.00 0.00 58 1022.8
20210415203142 49 101 4.0 9.0 0.00 0.00 0.00 58 1022.8
20210415202927 49 40 5.0 11.0 0.00 0.00 0.00 58 1022.4
20210415202833 49 38 5.0 10.0 0.00 0.00 0.00 58 1022.8
20210415201532 49 46 4.0 10.0 0.00 0.00 0.00 58 1022.8
20210415201027 49 74 4.0 12.0 0.00 0.00 0.00 58 1022.3
20210415201023 50 88 4.0 13.0 0.00 0.00 0.00 58 1022.6
20210415200533 50 94 4.0 15.0 0.00 0.00 0.00 58 1022.1
20210415195923 49 77 4.0 13.0 0.00 0.00 0.00 59 1021.9
20210415195440 50 56 5.0 13.0 0.00 0.00 0.00 59 1022.4
20210415195421 50 109 5.0 13.0 0.00 0.00 0.00 59 1021.8
20210415194527 50 83 4.0 11.0 0.00 0.00 0.00 59 1022.4
20210415194046 50 82 5.0 10.0 0.00 0.00 0.00 59 1021.8
20210415194042 50 79 5.0 9.0 0.00 0.00 0.00 59 1022.2
20210415193538 50 47 4.0 14.0 0.00 0.00 0.00 58 1022.2
20210415193536 50 47 4.0 13.0 0.00 0.00 0.00 58 1021.8
20210415192706 50 106 7.0 16.0 0.00 0.00 0.00 58 1021.9
20210415191529 50 103 7.0 15.0 0.00 0.00 0.00 58 1021.9
20210415191041 50 110 7.0 17.0 0.00 0.00 0.00 58 1021.8
20210415190537 51 79 10.0 17.0 0.00 0.00 0.00 57 1021.8
20210415190031 51 51 10.0 17.0 0.00 0.00 0.00 57 1021.8
20210415185902 51 63 8.0 16.0 0.00 0.00 0.00 57 1021.7
20210415185500 51 74 10.0 17.0 0.00 0.00 0.00 57 1021.7
20210415184523 51 93 9.0 15.0 0.00 0.00 0.00 58 1021.7
20210415184032 51 42 9.0 18.0 0.00 0.00 0.00 58 1021.7
20210415183534 51 80 10.0 17.0 0.00 0.00 0.00 57 1021.7
20210415182830 52 96 8.0 20.0 0.00 0.00 0.00 55 1021.7
20210415181542 52 76 9.0 21.0 0.00 0.00 0.00 55 1021.7
20210415181111 52 53 11.0 21.0 0.00 0.00 0.00 55 1021.5
20210415180535 52 33 8.0 19.0 0.00 0.00 0.00 55 1021.5
20210415175812 53 55 8.0 15.0 0.00 0.00 0.00 55 1021.2
20210415174622 53 137 8.0 19.0 0.00 0.00 0.00 54 1021.2
20210415174042 53 100 12.0 19.0 0.00 0.00 0.00 53 1021.2
20210415173544 53 28 10.0 22.0 0.00 0.00 0.00 54 1020.9
20210415173525 53 62 10.0 21.0 0.00 0.00 0.00 54 1021.2
20210415173219 53 5 12.0 21.0 0.00 0.00 0.00 52 1021.3
20210415173201 53 360 12.0 22.0 0.00 0.00 0.00 52 1020.8
20210415172752 53 49 10.0 23.0 0.00 0.00 0.00 52 1021.3
20210415172745 53 32 11.0 24.0 0.00 0.00 0.00 52 1020.8
20210415171537 53 55 13.0 25.0 0.00 0.00 0.00 51 1021.3
20210415171532 53 49 13.0 26.0 0.00 0.00 0.00 51 1020.8
20210415171037 53 55 12.0 26.0 0.00 0.00 0.00 53 1020.9
20210415171031 53 44 12.0 25.0 0.00 0.00 0.00 53 1021.2
20210415170545 53 61 14.0 24.0 0.00 0.00 0.00 52 1021.2
20210415170247 53 90 12.0 25.0 0.00 0.00 0.00 51 1021.0
20210415170245 53 82 12.0 24.0 0.00 0.00 0.00 51 1021.2
20210415170028 53 96 10.0 25.0 0.00 0.00 0.00 53 1021.2
20210415165957 53 82 9.0 26.0 0.00 0.00 0.00 53 1020.8
20210415165728 53 71 13.0 25.0 0.00 0.00 0.00 52 1021.2
20210415165712 53 50 13.0 26.0 0.00 0.00 0.00 52 1020.9
20210415164547 53 57 9.0 23.0 0.00 0.00 0.00 52 1020.9
20210415164036 53 34 14.0 28.0 0.00 0.00 0.00 52 1021.0
20210415163629 53 98 14.0 28.0 0.00 0.00 0.00 52 1020.8
20210415163236 54 64 15.0 26.0 0.00 0.00 0.00 52 1021.0
20210415162938 54 64 13.0 24.0 0.00 0.00 0.00 52 1020.8
20210415162337 54 28 12.0 25.0 0.00 0.00 0.00 52 1020.8
20210415161516 54 31 15.0 26.0 0.00 0.00 0.00 52 1020.8
20210415161028 54 74 13.0 26.0 0.00 0.00 0.00 53 1021.0
20210415160540 54 21 13.0 26.0 0.00 0.00 0.00 51 1020.8
20210415104549 56 65 12.0 22.0 0.00 0.00 0.00 60 1022.3
20210415103448 56 44 12.0 23.0 0.00 0.00 0.00 61 1022.3
20210415102129 56 65 11.0 19.0 0.00 0.00 0.00 60 1022.3
20210415101538 56 33 11.0 19.0 0.00 0.00 0.00 61 1022.3
20210415101040 56 55 8.0 22.0 0.00 0.00 0.00 61 1022.4
20210415100545 55 84 11.0 22.0 0.00 0.00 0.00 62 1022.4
20210415095953 56 331 12.0 22.0 0.00 0.00 0.00 59 1022.3
20210415094647 56 47 5.0 18.0 0.00 0.00 0.00 61 1022.3
20210415094102 56 45 10.0 23.0 0.00 0.00 0.00 60 1022.3
20210415093543 55 70 13.0 23.0 0.00 0.00 0.00 60 1022.3
20210415093158 55 42 9.0 18.0 0.00 0.00 0.00 61 1022.2
20210415092651 55 28 11.0 21.0 0.00 0.00 0.00 62 1022.2
20210415091543 55 78 9.0 21.0 0.00 0.00 0.00 62 1022.2
20210415091026 55 40 12.0 19.0 0.00 0.00 0.00 60 1022.2
20210415090549 55 80 11.0 18.0 0.00 0.00 0.00 62 1022.2
20210415090044 55 105 12.0 21.0 0.00 0.00 0.00 60 1022.0
20210415085838 55 69 11.0 19.0 0.00 0.00 0.00 62 1022.0
20210415084534 55 78 8.0 25.0 0.00 0.00 0.00 62 1022.0
20210415084041 55 111 11.0 25.0 0.00 0.00 0.00 62 1021.8
20210415083646 55 74 10.0 18.0 0.00 0.00 0.00 62 1021.8
20210415083331 55 87 11.0 21.0 0.00 0.00 0.00 63 1021.8
20210415083027 55 92 11.0 21.0 0.00 0.00 0.00 62 1021.8
20210415082719 55 86 9.0 19.0 0.00 0.00 0.00 63 1021.8
20210415081513 55 66 11.0 21.0 0.00 0.00 0.00 62 1021.8
20210415081029 54 42 8.0 17.0 0.00 0.00 0.00 63 1021.9
20210415080601 54 57 9.0 17.0 0.00 0.00 0.00 63 1021.9
20210415080030 53 38 6.0 12.0 0.00 0.00 0.00 64 1021.8
20210415074551 53 104 5.0 13.0 0.00 0.00 0.00 65 1021.8
20210415074041 53 72 7.0 13.0 0.00 0.00 0.00 65 1021.7
20210415073519 53 86 8.0 14.0 0.00 0.00 0.00 65 1021.7
20210415073057 52 78 7.0 13.0 0.00 0.00 0.00 66 1021.7
20210415072859 52 123 3.0 9.0 0.00 0.00 0.00 69 1021.7
20210415072118 51 113 5.0 14.0 0.00 0.00 0.00 69 1021.7
20210415071330 51 78 6.0 14.0 0.00 0.00 0.00 70 1021.7
20210415070755 50 98 4.0 8.0 0.00 0.00 0.00 71 1021.7
20210415070217 50 105 4.0 9.0 0.00 0.00 0.00 73 1021.7
20210415065853 49 103 5.0 9.0 0.00 0.00 0.00 74 1021.5
20210415065322 48 88 4.0 8.0 0.00 0.00 0.00 76 1021.5
20210415064541 48 99 3.0 9.0 0.00 0.00 0.00 78 1021.5
20210415064025 47 87 5.0 9.0 0.00 0.00 0.00 80 1021.4
20210415063522 46 77 2.0 7.0 0.00 0.00 0.00 82 1021.4
20210415063118 46 96 1.0 7.0 0.00 0.00 0.00 82 1021.4
20210415062935 45 113 1.0 4.0 0.00 0.00 0.00 81 1021.3
20210415062444 45 113 1.0 4.0 0.00 0.00 0.00 80 1021.3
20210415061530 45 110 0.0 3.0 0.00 0.00 0.00 80 1021.3
20210415061037 45 110 0.0 4.0 0.00 0.00 0.00 80 1021.2
20210415060519 46 109 1.0 4.0 0.00 0.00 0.00 80 1021.2
20210415060029 46 79 0.0 2.0 0.00 0.00 0.00 80 1021.2
20210415055832 46 79 0.0 2.0 0.00 0.00 0.00 81 1021.2
20210415055153 46 78 1.0 5.0 0.00 0.00 0.00 81 1021.2
20210415054526 46 78 2.0 5.0 0.00 0.00 0.00 82 1021.2
20210415054031 45 107 0.0 4.0 0.00 0.00 0.00 82 1021.2
20210415053525 45 107 1.0 4.0 0.00 0.00 0.00 82 1021.2
20210415053106 45 107 0.0 4.0 0.00 0.00 0.00 83 1021.2
20210415052843 45 107 2.0 3.0 0.00 0.00 0.00 83 1021.1
20210415052454 45 107 1.0 3.0 0.00 0.00 0.00 83 1021.1
20210415051521 45 111 0.0 2.0 0.00 0.00 0.00 82 1021.1
20210415051028 45 111 0.0 5.0 0.00 0.00 0.00 84 1021.0
20210415050524 44 111 1.0 5.0 0.00 0.00 0.00 85 1021.0
20210415050044 44 86 2.0 8.0 0.00 0.00 0.00 85 1021.0
20210415045829 43 81 4.0 8.0 0.00 0.00 0.00 86 1020.9
20210415045331 43 100 0.0 2.0 0.00 0.00 0.00 83 1020.9
20210415044549 43 100 0.0 3.0 0.00 0.00 0.00 83 1020.9
20210415044030 43 100 0.0 3.0 0.00 0.00 0.00 83 1020.8
20210415043528 43 126 0.0 0.0 0.00 0.00 0.00 80 1020.8
20210415043028 43 126 0.0 0.0 0.00 0.00 0.00 80 1020.8
20210415042940 43 126 0.0 0.0 0.00 0.00 0.00 80 1020.8
20210415042630 44 126 0.0 0.0 0.00 0.00 0.00 80 1020.8
20210415041554 44 126 0.0 0.0 0.00 0.00 0.00 80 1020.8
20210415041040 44 126 0.0 0.0 0.00 0.00 0.00 80 1020.8
20210415040522 44 126 0.0 2.0 0.00 0.00 0.00 80 1020.8
20210415040038 44 126 0.0 2.0 0.00 0.00 0.00 80 1020.8
20210415035858 44 130 0.0 0.0 0.00 0.00 0.00 80 1020.8
20210415035326 44 130 0.0 2.0 0.00 0.00 0.00 80 1020.8
20210415034529 45 130 0.0 2.0 0.00 0.00 0.00 80 1020.8
20210415034030 45 130 0.0 2.0 0.00 0.00 0.00 80 1020.8
20210415033520 45 130 0.0 2.0 0.00 0.00 0.00 80 1020.8
20210415033038 45 131 0.0 0.0 0.00 0.00 0.00 80 1020.8
20210415032758 45 131 0.0 2.0 0.00 0.00 0.00 80 1020.7
20210415032241 45 131 0.0 2.0 0.00 0.00 0.00 81 1020.7
20210415031529 45 131 0.0 3.0 0.00 0.00 0.00 81 1020.7
20210415031027 45 131 1.0 3.0 0.00 0.00 0.00 83 1020.7
20210415030522 45 129 0.0 5.0 0.00 0.00 0.00 82 1020.7
20210415030054 45 94 1.0 5.0 0.00 0.00 0.00 79 1020.7
20210415025627 45 83 0.0 0.0 0.00 0.00 0.00 78 1020.7
20210415024550 45 83 0.0 3.0 0.00 0.00 0.00 78 1020.7
20210415024033 45 83 0.0 3.0 0.00 0.00 0.00 79 1020.7
20210415023544 46 77 0.0 0.0 0.00 0.00 0.00 79 1020.7
20210415023038 46 77 0.0 0.0 0.00 0.00 0.00 79 1020.7
20210415022742 46 77 0.0 0.0 0.00 0.00 0.00 78 1020.7
20210415022212 46 77 0.0 0.0 0.00 0.00 0.00 77 1020.7
20210415021556 46 77 0.0 0.0 0.00 0.00 0.00 76 1020.7
20210415021031 46 77 0.0 0.0 0.00 0.00 0.00 76 1020.7
20210415020620 47 77 0.0 0.0 0.00 0.00 0.00 76 1020.7
20210415020418 47 77 0.0 0.0 0.00 0.00 0.00 76 1020.7
20210415020216 47 77 0.0 0.0 0.00 0.00 0.00 75 1020.8
20210415015855 47 77 0.0 0.0 0.00 0.00 0.00 73 1020.8
20210415014544 48 77 0.0 1.0 0.00 0.00 0.00 73 1020.8
20210415014053 48 77 0.0 1.0 0.00 0.00 0.00 72 1020.9
20210415013552 48 77 0.0 2.0 0.00 0.00 0.00 70 1020.9
20210415013110 48 77 0.0 2.0 0.00 0.00 0.00 71 1021.0
20210415011552 48 77 0.0 1.0 0.00 0.00 0.00 71 1021.0
20210415011033 48 77 0.0 3.0 0.00 0.00 0.00 71 1021.2
20210415010608 48 77 0.0 3.0 0.00 0.00 0.00 71 1021.2
20210415010052 48 78 1.0 3.0 0.00 0.00 0.00 70 1021.2
20210415005646 49 78 1.0 3.0 0.00 0.00 0.00 70 1021.2
20210415004615 49 78 0.0 3.0 0.00 0.00 0.00 70 1021.2
20210415004036 49 78 1.0 3.0 0.00 0.00 0.00 69 1021.3
20210415003520 49 77 1.0 2.0 0.00 0.00 0.00 69 1021.3
20210415003037 49 77 1.0 3.0 0.00 0.00 0.00 68 1021.4
20210415001750 49 77 1.0 4.0 0.00 0.00 0.00 68 1021.4
20210415001231 49 76 3.0 4.0 0.00 0.00 0.00 68 1021.5
20210415000944 49 82 1.0 4.0 0.00 0.00 0.00 67 1021.5
20210415000627 49 93 1.0 6.0 0.00 0.00 0.00 67 1021.5
20210415000106 49 87 3.0 7.0 0.00 0.00 0.00 67 1021.6
20210414235826 49 71 1.0 7.0 0.00 0.00 0.00 68 1021.6